GFSNGP_500_rhum_153.txt.gz
RH
24 23 27 42 70 23 24 28 78 34 38 31 29 21 17 15 14 14 14 12 12 9 8 10 8 8 10 32 38 51 87 100 100 100 99 99 100 100 99 99 100 100 100 100
30 34 44 40 25 25 32 33 29 27 31 27 31 26 20 17 14 11 17 13 10 13 18 38 41 48 46 49 58 57 44 60 89 97 99 100 96 99 100 100 100 100 100 98
43 52 52 41 33 36 42 40 38 36 40 39 51 100 100 27 33 35 29 24 20 29 41 39 33 34 32 30 40 45 98 95 74 80 81 92 100 100 100 100 100 100 100 100
56 55 59 48 50 46 44 60 78 96 100 100 100 100 62 36 28 27 46 55 54 52 48 44 42 38 42 100 68 75 86 94 90 93 100 100 100 100 100 100 100 100 100 100
66 60 53 46 38 34 28 32 17 36 82 98 100 100 41 44 40 44 39 33 47 50 49 62 99 71 92 100 100 98 98 85 99 100 100 100 100 100 100 100 100 100 100 100
54 47 38 34 25 29 88 53 32 100 100 100 99 39 86 60 44 23 35 59 72 61 54 94 100 100 100 100 100 100 100 100 100 100 100 100 100 100 100 100 100 100 100 100
51 64 32 25 35 40 57 32 60 65 93 88 41 58 50 29 21 20 33 32 15 37 74 100 100 100 100 100 100 100 100 100 100 100 100 100 100 100 100 100 100 100 100 100
81 96 76 64 55 64 66 85 93 80 76 40 40 53 32 20 18 20 15 15 13 10 10 31 56 96 100 100 100 100 100 100 100 100 100 100 100 100 100 100 99 99 98 92
71 38 59 93 40 59 100 50 81 98 84 98 58 50 32 21 23 20 19 18 17 15 12 9 8 21 48 95 100 100 100 100 100 100 100 99 100 100 100 100 96 97 91 91
81 47 57 52 40 31 62 93 88 84 100 61 72 50 33 24 25 22 26 26 18 11 10 11 9 9 9 12 62 99 100 100 100 100 100 100 100 100 100 97 93 86 80 70
43 35 64 68 64 61 26 18 15 26 92 99 59 48 33 30 27 23 32 45 36 23 20 14 11 9 9 11 9 54 98 100 100 100 100 100 100 100 100 100 100 90 59 50
32 43 39 34 30 25 18 35 42 61 81 88 60 46 24 25 31 41 53 38 27 20 17 16 13 10 9 10 10 24 60 96 100 100 100 100 100 100 100 100 94 56 38 46
32 35 28 21 23 24 34 99 100 100 95 81 78 80 74 58 58 38 29 23 18 17 16 13 14 15 14 12 12 26 72 81 100 100 100 100 100 98 92 74 45 39 44 64
28 22 23 87 85 87 100 100 100 100 100 94 82 68 42 28 43 30 40 60 37 36 36 23 17 15 15 15 16 59 100 96 95 100 99 95 92 76 66 54 43 49 66 80
34 90 100 94 100 100 100 98 100 98 89 47 18 19 25 20 30 37 38 60 90 87 73 77 64 57 72 43 72 77 92 99 97 100 100 99 88 73 62 54 49 76 90 85
100 100 100 95 96 95 100 100 69 23 20 19 19 17 18 27 46 51 67 66 93 98 100 100 100 100 100 100 100 100 100 100 100 100 100 100 94 88 79 66 62 78 69 85
99 99 78 81 68 66 60 42 22 20 20 16 18 24 49 60 56 60 75 69 69 71 76 77 77 75 78 90 100 100 100 100 100 92 76 74 69 68 72 78 92 86 81 88
17 16 16 15 15 19 26 33 30 29 29 25 27 52 59 50 53 58 62 76 86 88 86 84 80 88 89 90 97 100 100 98 94 88 83 86 92 95 97 99 100 100 100 100
14 13 12 13 17 20 22 24 26 29 24 35 56 62 60 71 64 58 22 11 11 12 14 19 26 28 39 62 79 86 88 78 74 76 94 100 100 100 100 100 100 100 100 100
13 13 13 21 26 35 26 33 36 55 67 69 64 76 86 70 21 11 11 12 14 19 23 22 21 20 20 19 19 19 17 15 14 18 37 78 100 100 100 100 100 100 100 100
14 16 27 33 49 73 95 100 99 76 74 84 91 76 21 16 15 18 23 25 26 27 26 23 20 18 17 14 12 12 12 13 13 15 16 17 31 88 100 100 100 100 100 100
34 36 31 38 50 72 76 66 68 88 95 86 34 19 23 23 26 27 29 29 27 26 24 18 15 14 14 15 16 15 14 14 15 15 18 23 28 51 98 100 100 100 100 100
70 70 65 65 70 70 68 64 78 94 78 20 18 19 26 31 32 32 31 29 22 17 16 17 16 15 16 18 20 19 18 17 18 24 38 67 64 65 96 100 100 100 100 100
97 95 79 66 64 68 67 72 93 98 62 35 20 20 25 27 25 26 28 19 16 18 20 20 17 16 20 23 21 17 16 20 31 41 71 86 96 83 86 87 96 100 100 100
73 66 56 56 61 66 84 99 99 100 56 35 34 24 21 22 26 25 17 18 21 25 26 18 16 26 28 23 17 15 18 22 32 36 71 96 100 100 100 100 100 96 96 98
52 50 52 66 92 100 100 100 100 77 35 39 39 35 31 26 19 19 22 23 30 32 22 17 29 32 27 18 14 15 22 34 42 45 69 95 98 97 99 100 100 100 100 100
59 72 78 95 100 99 58 30 23 25 31 38 33 29 21 19 20 22 27 35 36 26 17 29 35 32 21 14 15 21 35 41 49 59 80 99 100 100 100 96 91 86 81 77

GFSNGP_500_rhum_156.txt.gz
RH
23 22 24 26 44 30 59 72 99 97 100 23 21 24 22 20 24 37 38 37 35 30 26 16 11 8 7 7 7 7 7 9 13 12 12 45 50 68 97 100 100 100 100 99
31 32 39 34 27 26 29 95 100 98 49 23 26 25 27 36 39 35 30 25 15 9 8 7 6 6 10 14 18 27 46 47 59 51 56 66 67 100 100 100 100 100 100 100
40 60 47 40 33 36 39 48 48 44 38 36 43 44 42 42 36 51 15 15 17 15 17 19 24 22 28 36 40 48 50 50 40 39 62 63 61 79 100 99 100 100 100 100
53 66 61 46 42 51 56 53 54 50 51 55 56 47 75 68 31 26 59 27 25 35 41 40 39 35 30 36 37 40 38 49 54 65 76 78 100 100 100 100 100 100 100 100
74 75 66 43 40 62 70 66 54 48 38 33 24 26 40 28 28 100 95 34 60 39 18 41 34 68 65 39 97 100 86 98 100 100 100 97 100 100 100 100 100 100 100 100
78 63 63 34 47 55 62 57 42 78 45 29 28 27 60 49 97 84 52 67 31 18 30 18 11 11 44 79 100 100 100 99 92 100 90 100 100 100 100 100 100 100 100 100
58 60 52 37 42 44 46 52 42 43 58 24 30 97 83 100 61 67 66 22 13 16 12 12 13 11 9 35 89 100 100 100 100 100 100 100 100 100 100 100 100 100 100 100
59 59 43 50 52 69 70 60 57 60 62 77 42 100 96 62 35 45 38 15 16 16 17 19 17 14 11 10 16 35 99 100 100 100 100 100 100 100 100 100 100 100 100 100
57 58 60 51 67 48 90 99 70 58 53 88 52 49 100 98 52 54 28 17 13 17 14 17 15 13 12 11 10 9 16 97 100 100 100 100 100 100 100 100 100 100 100 100
44 29 45 39 27 38 44 72 83 39 99 100 59 98 100 95 81 50 28 19 14 14 14 11 10 10 10 11 10 10 8 12 95 100 100 100 100 100 100 100 100 100 100 100
41 23 43 32 38 36 41 36 35 38 53 100 91 67 83 100 80 47 38 24 22 23 30 31 19 12 12 13 15 12 10 9 16 97 100 100 100 100 100 100 98 100 100 100
29 28 40 22 42 42 30 45 49 49 29 29 55 49 42 87 95 68 46 34 31 37 38 31 23 22 21 16 14 15 13 12 10 43 99 100 100 100 100 100 100 100 100 99
20 21 26 22 27 32 35 34 32 26 20 100 92 74 84 87 79 65 50 49 26 19 20 32 49 40 22 24 17 16 15 16 13 12 41 79 100 100 100 100 97 96 96 84
23 19 17 20 18 31 26 20 17 20 46 98 94 100 100 98 85 44 22 16 21 30 30 42 52 71 70 66 45 21 15 13 13 25 94 95 100 100 100 97 94 91 79 61
16 16 20 25 27 21 38 65 78 87 99 100 97 100 99 61 24 16 12 14 34 44 46 54 66 72 87 92 92 50 46 62 76 76 96 100 100 100 100 100 96 84 73 69
20 23 30 46 56 81 100 100 100 100 99 100 96 84 28 15 14 12 14 42 53 60 56 51 65 87 100 98 90 100 100 100 100 100 100 100 100 100 100 100 100 96 92 92
48 93 100 100 99 98 100 96 82 88 97 88 38 23 22 14 13 24 47 47 52 57 53 62 67 65 69 86 99 100 98 98 100 100 100 100 100 100 99 93 90 89 97 100
100 100 96 96 92 76 53 40 41 44 45 37 45 24 18 16 29 50 48 55 57 46 29 36 63 86 88 90 95 94 95 100 100 100 100 99 97 99 97 90 97 100 100 100
41 19 28 33 31 36 43 47 44 48 46 43 31 19 25 48 52 52 72 37 11 9 12 14 14 14 14 14 15 21 28 37 39 44 46 40 35 41 51 68 94 100 100 100
15 15 16 19 19 28 39 39 25 22 32 33 31 74 69 58 70 69 18 11 12 15 19 20 19 18 16 15 14 12 12 12 12 12 12 12 13 13 13 14 20 54 100 100
13 14 21 26 35 32 54 81 86 95 100 100 94 83 85 92 50 15 17 21 20 21 22 22 20 15 12 12 13 15 18 18 19 18 17 17 17 17 20 23 29 41 94 100
14 24 36 38 34 36 44 73 73 72 81 88 93 97 70 21 21 26 26 25 25 23 20 17 15 15 14 14 15 19 23 24 21 18 16 16 19 26 42 64 64 65 93 100
25 33 56 53 34 34 45 65 72 78 92 89 61 24 17 20 27 29 28 26 23 16 13 15 18 18 15 14 21 27 26 21 16 14 15 21 31 50 82 97 90 96 98 99
84 89 96 86 84 71 66 68 72 84 99 88 41 18 16 20 25 24 21 22 16 14 18 22 23 17 14 26 30 27 19 14 13 17 25 32 37 61 98 100 100 100 100 100
65 78 92 87 71 59 57 62 76 99 100 98 53 31 23 19 20 24 24 16 16 19 23 27 20 16 30 32 29 20 13 13 15 28 35 42 46 71 99 100 95 96 100 100
55 62 61 57 57 55 66 90 100 100 100 96 39 34 36 32 26 18 16 16 19 27 31 23 16 29 34 33 23 16 13 15 21 36 41 46 57 79 100 100 95 91 90 90
58 56 56 57 70 82 100 100 100 92 72 43 33 37 34 25 19 16 18 22 32 34 33 20 22 34 36 32 21 17 16 18 24 36 48 51 68 89 91 97 100 88 73 62

GFSNGP_500_rhum_159.txt.gz
RH
32 46 55 38 29 25 32 42 58 30 54 20 25 33 30 38 63 56 32 26 22 23 23 32 30 30 27 18 15 8 7 7 6 5 5 8 20 20 19 19 12 19 29 62
38 42 44 29 25 24 25 29 30 49 28 28 30 33 37 60 55 30 33 39 36 37 32 23 26 18 16 13 11 10 14 21 20 14 16 26 36 67 69 77 100 72 90 91
40 41 41 32 32 44 52 50 48 45 40 38 36 40 51 54 40 44 46 46 40 20 25 39 39 31 29 25 21 27 35 31 30 23 26 38 45 45 67 68 87 100 78 95
75 71 58 43 47 59 64 63 58 58 55 52 48 45 48 47 45 45 42 31 22 27 52 98 50 47 18 17 15 13 38 75 76 76 63 35 37 60 60 94 65 78 100 78
73 92 77 47 56 83 81 61 58 55 50 46 43 44 47 42 36 27 24 30 36 69 95 90 64 26 12 20 10 9 14 38 86 89 82 72 59 71 52 78 76 85 99 100
99 100 86 43 62 78 72 57 54 50 50 47 43 52 43 36 40 37 63 100 100 100 85 76 33 11 11 14 14 9 10 11 87 90 95 100 100 100 100 100 100 100 100 100
100 98 76 47 65 79 63 55 50 45 47 41 37 37 40 32 24 69 99 100 94 69 100 50 14 10 7 11 10 8 8 9 14 94 100 100 98 100 100 100 100 100 100 100
84 89 61 57 65 67 61 55 46 38 47 60 48 43 37 36 73 100 100 100 86 69 69 34 14 10 11 9 11 9 8 8 9 25 99 100 100 100 100 100 100 100 100 100
100 78 62 64 59 57 54 43 37 34 33 59 52 62 55 52 94 100 98 94 100 93 51 31 17 9 10 12 8 8 9 9 10 10 45 99 100 100 100 100 100 100 100 100
87 63 71 60 49 37 62 39 26 31 28 45 78 44 58 100 100 96 100 99 82 89 55 33 19 12 11 16 15 11 10 11 11 12 9 54 100 100 100 100 100 100 100 100
59 54 52 41 36 37 36 35 26 22 23 78 100 65 45 85 100 94 92 56 82 82 50 64 37 26 26 26 20 19 18 18 16 13 12 12 88 100 100 100 100 100 99 100
40 42 41 27 30 29 27 24 22 23 19 26 40 43 41 42 100 95 67 42 74 82 56 47 42 34 22 18 22 30 36 36 28 19 15 10 14 87 100 100 100 100 100 100
26 28 30 24 23 22 19 18 18 19 22 35 60 47 37 72 100 99 88 72 91 76 52 34 14 16 26 33 48 40 32 49 32 22 17 14 11 44 99 100 100 100 100 97
21 15 16 19 20 18 16 14 14 21 32 36 35 30 57 100 100 100 100 88 59 28 16 11 15 28 33 50 50 51 99 94 38 84 18 15 15 21 100 100 100 100 100 96
27 25 17 14 14 16 16 16 18 27 24 20 24 92 100 98 100 99 76 32 22 14 12 14 28 35 40 44 59 56 95 92 98 100 100 97 95 94 97 100 100 100 96 98
18 20 19 19 21 18 18 23 24 74 90 74 99 100 96 100 100 67 34 16 12 13 16 29 39 39 44 54 52 68 65 79 99 98 100 100 100 100 98 95 94 95 96 94
20 44 97 100 41 33 26 44 100 100 100 100 99 100 100 70 32 22 17 17 14 29 31 34 40 32 52 83 72 56 70 85 94 100 100 100 100 100 98 93 90 95 98 94
96 94 100 92 86 84 82 100 98 88 95 89 90 89 85 80 45 27 17 16 27 36 53 18 9 10 12 29 50 72 79 82 79 89 97 99 100 100 99 97 95 92 94 95
94 86 100 62 57 89 97 99 76 41 34 51 72 86 93 90 60 21 26 40 43 45 11 12 15 15 15 15 15 15 14 14 15 15 15 15 15 15 15 15 16 17 17 18
49 75 65 22 21 25 20 18 24 30 33 20 24 48 74 50 26 54 62 64 32 11 13 16 16 16 14 12 11 12 14 17 19 20 21 21 20 19 18 17 18 19 22 24
16 14 15 18 18 19 19 49 75 81 78 64 73 65 62 91 96 84 52 18 14 16 18 19 18 16 13 12 12 14 16 21 25 25 24 20 17 14 14 14 18 26 40 62
16 16 15 18 26 28 35 47 67 68 62 62 78 94 100 100 65 32 23 20 19 21 22 18 14 14 15 14 13 14 21 25 27 22 16 12 11 13 17 24 32 64 93 89
32 30 26 30 40 46 37 38 49 60 64 70 81 92 69 35 26 24 23 22 23 22 19 14 15 19 19 14 15 24 27 28 21 15 11 12 17 26 34 38 47 88 92 94
90 79 75 99 100 97 86 68 72 66 64 73 92 79 26 20 18 20 23 22 20 20 16 18 22 24 18 17 26 30 29 21 15 12 12 15 29 35 40 44 71 97 97 94
66 65 70 89 100 97 86 72 59 56 60 82 100 98 58 34 21 19 19 23 21 16 20 23 28 22 17 28 32 32 25 18 14 13 15 20 34 41 43 55 90 97 94 94
51 50 55 67 72 69 65 62 57 59 75 100 100 98 66 36 33 31 26 18 17 20 28 32 29 19 23 31 36 35 25 19 16 16 18 24 33 41 57 84 92 95 100 95
68 56 49 51 50 50 50 56 75 94 99 100 100 98 49 39 37 26 19 18 20 29 34 35 33 27 28 34 39 38 29 24 21 19 22 30 35 42 54 75 88 88 78 62

GFSNGP_500_rhum_162.txt.gz
RH
53 59 58 51 44 53 68 85 96 77 98 25 97 100 90 82 71 77 82 76 42 40 38 47 46 31 33 33 33 31 26 23 21 18 11 8 8 7 7 9 10 8 8 10
81 84 82 66 55 56 85 82 94 80 52 53 31 26 25 25 28 32 37 36 55 80 55 39 40 42 40 33 27 23 27 30 22 15 11 9 15 28 44 42 35 48 29 19
99 95 100 81 61 98 100 91 65 46 32 29 29 32 38 43 42 42 42 41 57 55 50 51 46 34 24 21 45 54 30 21 13 10 8 17 75 72 56 73 70 39 48 59
100 100 99 59 66 89 86 64 76 78 75 75 74 66 60 54 51 50 51 52 54 54 48 43 30 32 55 67 53 30 15 15 9 6 10 51 88 53 64 80 99 61 47 53
92 82 75 54 55 75 85 78 75 74 77 79 68 56 48 44 40 38 38 42 52 43 49 42 55 88 81 73 49 25 13 9 6 5 5 7 65 58 82 99 100 100 75 70
83 98 83 44 54 75 84 64 63 59 61 61 56 46 41 38 36 37 42 44 40 40 57 45 92 93 78 57 53 11 10 9 6 6 6 6 9 74 89 82 100 100 100 95
95 98 78 48 51 93 99 62 64 58 60 61 57 43 40 40 44 44 41 46 47 56 100 96 99 92 82 88 46 14 10 12 14 8 8 8 7 8 81 92 98 99 98 100
99 100 73 52 84 94 90 74 68 62 59 55 50 43 39 39 43 51 51 46 60 93 100 100 97 99 80 57 29 22 15 11 16 16 13 10 11 9 18 99 100 100 100 100
100 93 93 86 78 81 76 67 60 56 57 50 45 42 41 40 51 60 58 57 79 85 90 90 91 100 90 54 34 30 26 19 14 11 18 15 13 13 11 77 100 100 100 100
92 78 86 78 72 65 63 62 65 66 57 46 36 36 40 45 37 41 75 58 69 99 99 88 89 85 58 39 61 75 56 40 33 24 22 20 17 14 15 61 100 100 100 100
90 81 73 69 67 67 66 63 60 52 41 30 28 37 60 56 57 92 92 52 52 70 86 80 85 96 73 65 53 44 20 17 27 30 31 34 30 18 14 27 100 100 100 100
56 65 62 53 62 63 60 57 52 44 34 27 23 22 24 26 34 66 81 49 42 86 95 61 71 70 64 60 25 12 19 33 41 42 40 40 35 26 16 13 95 100 100 100
37 32 32 31 30 32 33 35 36 34 29 24 18 15 25 26 30 38 44 38 43 92 100 84 84 58 46 13 12 19 30 33 40 63 29 42 100 100 16 35 97 100 100 100
18 16 14 14 14 15 17 22 30 28 20 16 14 20 31 32 46 44 48 94 97 97 79 48 32 18 12 12 20 34 31 32 32 46 34 83 100 100 97 100 100 100 100 100
15 14 16 16 19 23 31 27 21 17 15 16 15 21 34 35 33 42 100 100 100 72 31 19 13 17 24 24 32 35 40 50 39 74 38 56 98 100 100 100 100 100 100 100
14 14 16 17 16 19 22 25 18 18 17 15 19 28 22 17 79 81 100 96 81 30 22 15 19 32 28 28 30 30 64 57 64 60 97 80 67 72 82 98 100 100 100 100
16 90 100 96 48 24 22 20 19 19 24 90 60 47 58 77 96 100 96 70 39 29 17 17 26 32 22 8 9 25 85 84 74 72 81 89 98 100 99 95 95 91 87 84
70 100 100 100 100 100 62 53 35 91 100 100 100 100 100 100 100 100 84 72 46 20 18 25 35 14 11 11 11 12 14 27 39 50 52 56 68 75 78 71 65 59 52 48
77 97 100 100 100 100 100 98 95 100 100 74 36 50 79 91 99 99 95 91 41 20 31 41 17 12 12 12 12 11 11 12 14 16 17 18 19 19 19 19 18 18 18 18
88 94 100 67 73 97 83 63 42 31 20 27 39 34 26 20 35 61 68 44 28 40 51 16 13 14 14 13 12 11 13 16 19 22 24 25 25 22 18 16 15 13 14 15
18 15 14 15 17 15 13 13 14 16 36 47 49 49 62 84 82 97 100 92 64 46 17 18 17 16 14 13 14 13 13 15 20 22 27 24 18 13 11 11 14 18 23 31
26 21 18 16 15 14 15 18 22 37 66 62 60 62 68 86 90 98 90 59 28 25 24 21 18 13 13 16 17 14 16 21 26 28 20 15 12 11 12 19 26 33 38 44
31 25 21 22 22 22 27 32 35 41 54 71 70 69 74 85 92 72 34 31 30 30 24 20 15 15 19 22 16 17 23 30 28 20 15 13 12 13 18 31 35 39 44 72
57 63 56 47 47 70 75 71 57 47 64 80 79 74 82 76 25 21 20 22 28 25 21 17 17 20 25 20 18 23 32 32 24 18 16 15 15 15 19 32 36 42 78 95
69 70 64 65 72 84 94 100 98 87 73 70 77 79 94 98 61 34 21 20 20 24 19 18 22 28 23 18 23 32 37 35 26 23 20 19 18 19 26 32 50 73 85 92
61 60 58 56 57 68 83 91 90 73 67 70 76 95 100 100 92 44 33 32 28 18 18 23 32 32 25 25 29 36 39 38 33 31 27 24 24 23 30 37 40 55 78 87
63 82 83 68 57 58 58 57 55 58 67 93 100 100 100 100 89 40 38 29 19 18 21 33 36 39 41 39 37 39 42 44 42 39 36 32 30 27 28 33 43 48 50 53